Regional Weather Roundup
Issued by NWS

Home | Current Version | Previous Version | Graphics & Text | Print | Product List | Glossary On
Versions: 1 2 3 4 5 6 7 8 9 10 11 12 13 14 15 16 17 18 19 20 21 22 23 24 25 26 27 28 29 30 31 32 33 34 35 36 37 38 39 40 41 42 43 44 45 46 47 48 49 50
000
ASUS45 KBOU 312307
RWRCO

WEATHER ROUNDUP FOR COLORADO
NATIONAL WEATHER SERVICE DENVER/BOULDER CO
500 PM MDT SUN AUG 31 2014

NOTE: "FAIR" INDICATES FEW OR NO CLOUDS BELOW 12000 FEET WITH NO
SIGNIFICANT WEATHER AND/OR OBSTRUCTIONS TO VISIBILITY.

COZ001>005-013-030-031-010000-
...NORTHWEST COLORADO...

CITY           SKY/WX    TMP DP  RH WIND       PRES   REMARKS
CRAIG          MOSUNNY   70  45  40 N8        30.03R
HAYDEN         PTSUNNY   64  43  45 N12       30.04S
MEEKER         MOSUNNY   75  36  24 NW20G31   30.00F
MOUNT WERNER   NOT AVBL
STEAMBOAT SPGS MOSUNNY   64  43  46 W18       30.06R
WALDEN         MOSUNNY   55  36  47 W23       30.10F
$$

COZ006>008-011-010000-
...WEST CENTRAL VALLEYS...

CITY           SKY/WX    TMP DP  RH WIND       PRES   REMARKS
GRAND JUNCTION SUNNY     86  31  13 W21G32    29.87F
MONTROSE       MOSUNNY   87  31  13 W20G30    29.95F
EAGLE          MOSUNNY   79  34  19 W20G31    29.98S
RIFLE          PTSUNNY   77  42  28 NW12      29.92R
DELTA          NOT AVBL
NUCLA          MOSUNNY   86  30  13 W21G29    30.00S
$$

COZ017>023-064>068-010000-
...SOUTHWEST COLORADO...

CITY           SKY/WX    TMP DP  RH WIND       PRES   REMARKS
DURANGO        MOSUNNY   82  31  15 SW18G33   30.06F
CORTEZ         MOSUNNY   87  33  14 SW13G22   30.00F
PAGOSA SPRINGS PTSUNNY   79  23  12 W18G30    30.13F
TELLURIDE      NOT AVBL
WOLF CREEK PAS NOT AVBL
$$

COZ009-010-012-014-032>034-037-058>063-010000-
...CENTRAL COLORADO...

CITY           SKY/WX    TMP DP  RH WIND       PRES   REMARKS
ASPEN          MOSUNNY   74  27  17 W14G20    30.07R
BUENA VISTA    MOSUNNY   71  32  23 S13G21    30.12S
COPPER MTN     PTSUNNY   55  28  35 W21G38    30.36R
BERTHOUD PASS  PTSUNNY   37  37 100 W26G36    30.37S
COTTONWOOD PAS MOSUNNY   63  30  29 W26G36    30.23F
GUNNISON       PTSUNNY   70  37  30 W9        30.11F
KREMMLING      PTSUNNY   64  39  39 NW10G21   30.06S
LEADVILLE      CLOUDY    60  30  32 NW10      30.20F
MONARCH PASS   PTSUNNY   50  32  50 W29G39    30.49R
SALIDA         MOSUNNY   74  34  22 NW17G29   30.15F
SUNLIGHT       MOSUNNY   61  36  39 CALM      30.28R
WILKERSON PASS NOT AVBL
$$

COZ069>075-010000-
...SAN LUIS VALLEY/SANGRE DE CRISTO MOUNTAINS...

CITY           SKY/WX    TMP DP  RH WIND       PRES   REMARKS
ALAMOSA        SUNNY     80  30  16 W23G31    30.08S
LA VETA PASS   NOT AVBL
SAGUACHE       NOT AVBL
$$

COZ035-036-038>040-010000-
...NORTHERN COLORADO FRONT RANGE...

CITY           SKY/WX    TMP DP  RH WIND       PRES   REMARKS
DENVER INTL AP PTSUNNY   66  49  54 NE12      29.92R
DMNS CITY PARK   N/A     67  50  54 N7        29.92S
AURORA         PTSUNNY   70  49  47 E15       29.93S
FRONT RANGE AP NOT AVBL
ERIE MUNI ARPT CLOUDY    65  52  62 CALM      29.92R
BOULDER MUN AP CLOUDY    64  52  63 S3        29.91S
CENTENNIAL     PTSUNNY   74  48  39 N18       29.93R
BROOMFIELD     PTSUNNY   64  54  68 VRB6      29.93F
FORT COLLINS   MOSUNNY   73  52  46 SE6       29.90S
LONGMONT       LGT RAIN  68  51  54 CALM      29.93R VSB 1
$$

COZ041-046-047-076>085-087-088-010000-
...PIKES PEAK/PALMER DIVIDE AND SOUTHERN FOOTHILLS...

CITY           SKY/WX    TMP DP  RH WIND       PRES   REMARKS
COLO. SPRINGS  MOSUNNY   79  45  29 E6        29.95R
A. F. ACADEMY  MOSUNNY   80  34  18 SW10G21   29.95S
ELLICOTT       MOSUNNY   75  47  36 E10       29.93F
FALCON         PTSUNNY   74  48  39 SE5       30.01R
FORT CARSON    MOSUNNY   78  50  36 E9G18     29.91S
LIMON          PTSUNNY   74  48  39 E18       29.91F
MONUMENT HILL  MOSUNNY   72  46  40 E10       30.00R
TRINIDAD       SUNNY     90  30  11 W24G33    29.90F
$$

COZ042>045-048>051-090-091-010000-
...NORTHEAST COLORADO...

CITY           SKY/WX    TMP DP  RH WIND       PRES   REMARKS
GREELEY ARPT   PTSUNNY   73  48  40 SE5       29.89S
AKRON          CLOUDY    68  47  46 MISG      29.88F
BURLINGTON     CLOUDY    76  48  37 NE13G22   29.86F
WRAY             N/A     77  49  37 N10       29.85R
STERLING       CLOUDY    75  54  46 S5        29.83S
HOLYOKE        CLOUDY    73  50  43 E5        29.83F HAZE
FORT MORGAN    CLOUDY    76  43  30 CALM      29.88F THUNDER
$$

COZ086-089-092>099-010000-
...SOUTHEAST COLORADO...

CITY           SKY/WX    TMP DP  RH WIND       PRES   REMARKS
PUEBLO         PTSUNNY   87  46  24 NE22      29.80S
LA JUNTA       PTSUNNY   86  50  28 NE22G28   29.77S
LAMAR          CLOUDY    84  54  35 NE21      29.75S
SPRINGFIELD      N/A     92  42  17 W5        29.76F
$$



USA.gov is the U.S. government's official web portal to all federal, state and local government web resources and services.